User: anonymous   Login
Location: *
(44.1392°N, 4.8079°E)
Time: 22:24:36
(UTC+00:00)
Language:

IDEFIX/ARIANE 42P - Orbit

View from above orbital plane
View from above orbital plane
View from above satellite
View from above satellite

Ground track
Ground track

The orbit data is extracted from the following two-line orbital elements,

1 27422U 02021B   21266.88253545  .00000021  00000-0  24861-4 0  9997
2 27422  98.4114 216.4219 0011321 307.0072  53.0074 14.29331517 11375
Epoch (UTC): 23 September 2021 21:10:51
Eccentricity: 0.0011321
inclination: 98.4114°
perigee height: 786 km
apogee height: 802 km
right ascension of ascending node: 216.4219°
argument of perigee: 307.0072°
revolutions per day: 14.29331517
mean anomaly at epoch: 53.0074°
orbit number at epoch: 1137

The dashed part of the orbit path shows where the satellite is in the earth's shadow,  

DLR